Location: Nelson
(41.2830°S, 173.2830°E)
Time: 14:38:23
(UTC+12:00)

ISS - Visible Passes

Search period start: 01 July 2022 00:00
Search period end: 11 July 2022 00:00
Orbit: 414 x 420 km, 51.6° (Epoch: 30 June)

Date Brightness Start Highest point End Pass type
(mag) Time Alt. Az. Time Alt. Az. Time Alt. Az.
01 Jul -1.6 18:57:17 10° SSW 18:58:46 17° S 18:58:46 17° S visible
02 Jul -1.8 18:09:10 10° SSW 18:11:31 17° SSE 18:12:40 15° SE visible
02 Jul -0.5 19:45:31 10° SW 19:45:36 10° SW 19:45:36 10° SW visible
03 Jul -2.3 18:57:25 10° SW 18:59:35 28° S 18:59:35 28° S visible
04 Jul -2.4 18:09:20 10° SW 18:12:14 25° SSE 18:13:41 19° ESE visible
04 Jul -0.8 19:45:50 10° WSW 19:46:38 16° WSW 19:46:38 16° WSW visible
05 Jul -3.8 18:57:35 10° SW 19:00:53 78° S 19:00:53 78° S visible
06 Jul -3.5 18:09:23 10° SW 18:12:44 49° SSE 18:15:21 15° ENE visible
06 Jul -0.9 19:46:39 10° W 19:48:20 18° WNW 19:48:20 18° WNW visible
07 Jul -2.2 18:57:59 10° WSW 19:01:08 35° NW 19:03:08 18° NNE visible
08 Jul -3.2 18:09:33 10° WSW 18:12:56 63° NW 18:16:17 10° NE visible
09 Jul -0.5 18:59:24 10° WNW 19:00:59 13° NW 19:02:34 10° NNW visible
10 Jul -1.0 18:10:11 10° W 18:12:53 22° NW 18:15:33 10° N visible
